Location: Blankensee
(53.5126°N, 14.3055°E)
Time: 16:42:28
(UTC+00:00)

COBE Rocket - Pass Details

Date: 08 August 2020
Orbit: 681 x 781 km, 97.1° (Epoch: 19 September)

Event Time Altitude Azimuth Distance (km) Brightness Sun altitude
Exits shadow 01:00:23 16° 160° (SSE) 1,754 5.5 -16.4°
Maximum altitude 01:04:06 80° 75° (ENE) 700 3.8 -16.1°
Drops below altitude 10° 01:08:46 10° 349° (NNW) 2,137 7.0 -15.8°
Sets 01:11:01 0° 348° (NNW) 3,059 7.9 -15.6°
